Location: Crocus Hill
(18.2167°N, 63.0667°W)
Time: 18:00:11
(UTC+00:00)

Cosmos 972 Rocket - Pass Details

Date: 26 January 2020
Orbit: 713 x 1151 km, 75.8° (Epoch: 22 February)

Event Time Altitude Azimuth Distance (km) Brightness Sun altitude
Exits shadow 09:44:37 - 341° (NNW) 3,266 6.9 -14.9°
Reaches altitude 10° 09:46:45 10° 338° (NNW) 2,444 6.3 -14.4°
Maximum altitude 09:52:07 57° 261° (W) 912 4.1 -13.2°
Drops below altitude 10° 09:57:01 10° 183° (S) 2,235 6.6 -12.1°
Sets 09:59:18 0° 179° (S) 3,128 7.4 -11.5°
